CW9803 Weather Reports


time (UTC)temp
C
wind
direction
speed
KPH
gust
KPH
rain 1hr
cm
rain 24hr
cm
rain mn
cm
humidity
%
barometer
mb
20260506035149 15 55 3.2 3.2 0.00 0.00 0.00 59 1010.5
20260506034646 15 100 1.6 3.2 0.00 0.00 0.00 61 1010.3
20260506034143 15 96 0.0 0.0 0.00 0.00 0.00 63 1010.3
20260506033641 15 56 1.6 3.2 0.00 0.00 0.00 62 1010.3
20260506033137 15 115 1.6 1.6 0.00 0.00 0.00 61 1010.1
20260506032634 15 107 1.6 1.6 0.00 0.00 0.00 60 1010.3
20260506032131 16 103 1.6 1.6 0.00 0.00 0.00 58 1010.3
20260506031628 16 138 0.0 0.0 0.00 0.00 0.00 57 1009.9
20260506031125 16 60 1.6 1.6 0.00 0.00 0.00 55 1010.1
20260506030624 17 109 0.0 0.0 0.00 0.00 0.00 54 1010.0
20260506030120 16 114 0.0 0.0 0.00 0.00 0.00 54 1009.9
20260506025617 17 86 0.0 1.6 0.00 0.00 0.00 56 1009.8
20260506025113 17 142 0.0 0.0 0.00 0.00 0.00 55 1010.0
20260506024611 17 59 1.6 1.6 0.00 0.00 0.00 53 1009.9
20260506024107 18 107 0.0 0.0 0.00 0.00 0.00 50 1009.8
20260506023603 18 204 3.2 3.2 0.00 0.00 0.00 48 1009.4
20260506023101 19 271 3.2 4.8 0.00 0.00 0.00 47 1009.6
20260506022558 20 165 0.0 0.0 0.00 0.00 0.00 46 1009.6
20260506022056 20 314 1.6 3.2 0.00 0.00 0.00 46 1009.5
20260506021553 20 26 1.6 1.6 0.00 0.00 0.00 46 1009.5
20260506021050 21 130 1.6 3.2 0.00 0.00 0.00 41 1009.5
20260506020547 21 231 4.8 4.8 0.00 0.00 0.00 40 1009.4
20260506020045 21 130 1.6 1.6 0.00 0.00 0.00 40 1009.4
20260506015542 21 122 3.2 3.2 0.00 0.00 0.00 40 1009.5
20260506015039 21 237 4.8 9.7 0.00 0.00 0.00 39 1009.4
20260506014536 21 281 4.8 6.4 0.00 0.00 0.00 38 1009.2
20260506014032 22 278 6.4 6.4 0.00 0.00 0.00 37 1009.3
20260506013531 22 315 9.7 14.5 0.00 0.00 0.00 37 1009.0
20260506013027 22 256 6.4 6.4 0.00 0.00 0.00 37 1009.1
20260506012523 22 327 6.4 6.4 0.00 0.00 0.00 37 1009.0
20260506012020 22 286 17.7 20.9 0.00 0.00 0.00 36 1009.2
20260506011518 22 196 8.0 11.3 0.00 0.00 0.00 35 1009.0
20260506011014 22 233 9.7 11.3 0.00 0.00 0.00 34 1009.1
20260506010513 23 227 3.2 3.2 0.00 0.00 0.00 33 1008.8
20260506010009 23 289 11.3 14.5 0.00 0.00 0.00 33 1008.8
20260506005507 23 316 8.0 9.7 0.00 0.00 0.00 33 1009.0
20260506005002 23 335 6.4 6.4 0.00 0.00 0.00 32 1009.0
20260506004500 23 306 12.9 16.1 0.00 0.00 0.00 32 1009.1
20260506003956 23 149 1.6 3.2 0.00 0.00 0.00 33 1008.7
20260506003452 23 232 12.9 14.5 0.00 0.00 0.00 31 1008.6
20260506002948 23 244 6.4 11.3 0.00 0.00 0.00 33 1008.6
20260506002445 23 346 9.7 12.9 0.00 0.00 0.00 30 1008.8
20260506001940 23 335 9.7 16.1 0.00 0.00 0.00 32 1008.5
20260506001438 23 353 9.7 14.5 0.00 0.00 0.00 32 1008.8
20260506000935 23 27 8.0 11.3 0.00 0.00 0.00 32 1008.8
20260506000432 24 310 9.7 16.1 0.00 0.00 0.00 30 1008.8
20260505235929 24 350 6.4 9.7 0.00 0.00 0.00 31 1008.7
20260505235427 24 206 8.0 9.7 0.00 0.00 0.00 28 1008.5
20260505234924 24 326 14.5 17.7 0.00 0.00 0.00 27 1009.0
20260505234421 24 301 6.4 6.4 0.00 0.00 0.00 29 1008.7
20260505233918 23 188 6.4 9.7 0.00 0.00 0.00 30 1008.7
20260505233416 24 183 4.8 11.3 0.00 0.00 0.00 32 1008.8
20260505232913 23 349 6.4 9.7 0.00 0.00 0.00 31 1008.6
20260505232411 24 328 6.4 11.3 0.00 0.00 0.00 31 1008.7
20260505231907 24 113 9.7 14.5 0.00 0.00 0.00 31 1008.6
20260505231405 24 99 11.3 16.1 0.00 0.00 0.00 30 1008.7
20260505230903 24 25 6.4 6.4 0.00 0.00 0.00 33 1008.5
20260505230400 25 221 8.0 9.7 0.00 0.00 0.00 34 1008.8
20260505225856 24 350 8.0 12.9 0.00 0.00 0.00 34 1008.6
20260505225354 25 214 6.4 6.4 0.00 0.00 0.00 34 1008.5
20260505224849 24 306 9.7 11.3 0.00 0.00 0.00 35 1008.6
20260505224347 24 148 3.2 3.2 0.00 0.00 0.00 35 1008.5
20260505223843 25 259 9.7 11.3 0.00 0.00 0.00 35 1008.8
20260505223340 25 265 9.7 14.5 0.00 0.00 0.00 33 1008.7
20260505222836 25 300 9.7 12.9 0.00 0.00 0.00 33 1008.6
20260505222332 25 7 4.8 6.4 0.00 0.00 0.00 33 1008.6
20260505221830 24 298 8.0 9.7 0.00 0.00 0.00 33 1008.8
20260505221326 25 210 8.0 11.3 0.00 0.00 0.00 33 1008.6
20260505220823 24 318 19.3 27.4 0.00 0.00 0.00 33 1008.7
20260505220320 24 275 11.3 17.7 0.00 0.00 0.00 34 1008.6
20260505215819 24 297 12.9 16.1 0.00 0.00 0.00 34 1008.8
20260505215316 25 151 8.0 11.3 0.00 0.00 0.00 35 1008.7
20260505214814 24 300 6.4 9.7 0.00 0.00 0.00 34 1009.0
20260505214311 25 311 14.5 16.1 0.00 0.00 0.00 35 1009.0
20260505213808 24 303 8.0 11.3 0.00 0.00 0.00 35 1008.7
20260505213306 24 353 6.4 6.4 0.00 0.00 0.00 34 1009.0
20260505212801 24 322 16.1 20.9 0.00 0.00 0.00 36 1008.6
20260505212259 24 264 9.7 12.9 0.00 0.00 0.00 36 1008.7
20260505211755 24 326 6.4 9.7 0.00 0.00 0.00 36 1008.7
20260505211253 23 147 6.4 9.7 0.00 0.00 0.00 36 1008.6
20260505210749 23 285 8.0 11.3 0.00 0.00 0.00 36 1008.7
20260505210246 24 301 6.4 9.7 0.00 0.00 0.00 35 1008.6
20260505205743 25 353 6.4 9.7 0.00 0.00 0.00 36 1008.7
20260505205242 23 7 6.4 9.7 0.00 0.00 0.00 37 1008.8
20260505204738 24 231 6.4 6.4 0.00 0.00 0.00 35 1009.1
20260505204236 23 301 4.8 4.8 0.00 0.00 0.00 38 1008.7
20260505203732 23 336 4.8 4.8 0.00 0.00 0.00 37 1008.6
20260505203230 23 48 6.4 9.7 0.00 0.00 0.00 37 1008.8
20260505202725 22 43 3.2 3.2 0.00 0.00 0.00 40 1009.0
20260505202221 22 16 4.8 6.4 0.00 0.00 0.00 41 1008.7
20260505201718 22 29 3.2 6.4 0.00 0.00 0.00 39 1009.1
20260505201216 22 126 3.2 3.2 0.00 0.00 0.00 39 1009.0
20260505200714 23 329 8.0 9.7 0.00 0.00 0.00 40 1008.8
20260505200211 23 76 1.6 1.6 0.00 0.00 0.00 38 1008.7
20260505195706 23 174 4.8 4.8 0.00 0.00 0.00 38 1008.6
20260505195204 23 89 1.6 3.2 0.00 0.00 0.00 38 1009.0
20260505194701 23 337 11.3 14.5 0.00 0.00 0.00 38 1009.2
20260505194157 23 154 4.8 6.4 0.00 0.00 0.00 38 1009.0
20260505193653 23 250 3.2 4.8 0.00 0.00 0.00 37 1009.1
20260505193151 23 97 1.6 1.6 0.00 0.00 0.00 36 1009.1
20260505192649 23 82 3.2 3.2 0.00 0.00 0.00 36 1009.1
20260505192146 24 123 1.6 1.6 0.00 0.00 0.00 35 1009.2
20260505191645 24 271 3.2 3.2 0.00 0.00 0.00 34 1009.2
20260505191143 23 110 1.6 1.6 0.00 0.00 0.00 33 1009.1
20260505190638 23 68 4.8 9.7 0.00 0.00 0.00 33 1009.3
20260505190133 22 91 1.6 1.6 0.00 0.00 0.00 33 1009.3
20260505185630 23 158 3.2 4.8 0.00 0.00 0.00 33 1009.1
20260505185126 23 143 0.0 0.0 0.00 0.00 0.00 32 1008.8
20260505184623 22 177 1.6 1.6 0.00 0.00 0.00 33 1009.0
20260505184120 23 152 1.6 1.6 0.00 0.00 0.00 30 1009.3
20260505183616 23 106 3.2 3.2 0.00 0.00 0.00 29 1009.1
20260505183114 23 123 3.2 6.4 0.00 0.00 0.00 27 1009.1
20260505182610 23 147 8.0 11.3 0.00 0.00 0.00 29 1009.2
20260505182107 23 114 1.6 1.6 0.00 0.00 0.00 30 1009.2
20260505181604 23 98 1.6 3.2 0.00 0.00 0.00 29 1009.4
20260505181101 23 103 3.2 4.8 0.00 0.00 0.00 31 1009.3
20260505180556 24 134 0.0 0.0 0.00 0.00 0.00 32 1009.2
20260505180055 23 130 1.6 1.6 0.00 0.00 0.00 31 1009.1
20260505175550 23 124 0.0 1.6 0.00 0.00 0.00 32 1009.0
20260505175046 23 185 0.0 0.0 0.00 0.00 0.00 34 1009.1
20260505174544 23 134 0.0 0.0 0.00 0.00 0.00 35 1009.2
20260505174039 22 106 1.6 1.6 0.00 0.00 0.00 38 1009.2
20260505173536 21 75 1.6 3.2 0.00 0.00 0.00 42 1009.2
20260505173033 22 137 0.0 0.0 0.00 0.00 0.00 41 1009.1
20260505172531 22 128 0.0 0.0 0.00 0.00 0.00 42 1009.2
20260505172027 21 109 1.6 1.6 0.00 0.00 0.00 45 1009.3
20260505171522 21 150 0.0 1.6 0.00 0.00 0.00 48 1009.1
20260505171020 20 78 3.2 4.8 0.00 0.00 0.00 47 1009.3
20260505170516 20 118 0.0 0.0 0.00 0.00 0.00 48 1009.5
20260505170012 20 141 0.0 1.6 0.00 0.00 0.00 49 1009.2
20260505165508 18 220 1.6 3.2 0.00 0.00 0.00 53 1009.4
20260505165004 19 167 1.6 3.2 0.00 0.00 0.00 52 1009.2
20260505164500 19 137 1.6 1.6 0.00 0.00 0.00 51 1009.3
20260505163958 19 79 3.2 3.2 0.00 0.00 0.00 51 1009.4
20260505163456 18 118 0.0 0.0 0.00 0.00 0.00 54 1009.3
20260505162956 17 150 1.6 1.6 0.00 0.00 0.00 57 1009.3
20260505162451 17 153 1.6 1.6 0.00 0.00 0.00 58 1009.5
20260505161947 16 100 0.0 1.6 0.00 0.00 0.00 58 1009.4
20260505161439 17 142 0.0 1.6 0.00 0.00 0.00 59 1009.5
20260505160936 17 262 0.0 3.2 0.00 0.00 0.00 58 1009.5
20260505160435 15 118 0.0 0.0 0.00 0.00 0.00 63 1009.5
20260505152910 14 98 1.6 1.6 0.00 0.00 0.00 67 1009.7
20260505152402 13 132 0.0 0.0 0.00 0.00 0.00 69 1009.7
20260505151901 12 136 0.0 0.0 0.00 0.00 0.00 72 1009.8
20260505151358 12 137 0.0 0.0 0.00 0.00 0.00 76 1009.6
20260505150855 11 127 1.6 1.6 0.00 0.00 0.00 77 1009.4
20260505150352 11 133 1.6 1.6 0.00 0.00 0.00 80 1009.6
20260505140311 8 114 0.0 0.0 0.00 0.00 0.00 86 1009.1
20260505130234 5 119 0.0 0.0 0.00 0.00 0.00 95 1008.5
20260505124725 4 143 0.0 0.0 0.00 0.00 0.00 95 1008.2
20260505124222 4 143 0.0 0.0 0.00 0.00 0.00 95 1008.4
20260505123717 4 143 0.0 0.0 0.00 0.00 0.00 95 1008.5
20260505123214 4 143 0.0 0.0 0.00 0.00 0.00 95 1008.3
20260505122711 4 143 0.0 0.0 0.00 0.00 0.00 95 1008.4
20260505122208 4 143 0.0 0.0 0.00 0.00 0.00 95 1008.3
20260505121705 4 143 0.0 0.0 0.00 0.00 0.00 95 1008.1
20260505121201 5 111 0.0 0.0 0.00 0.00 0.00 95 1008.2
20260505120657 5 111 0.0 0.0 0.00 0.00 0.00 95 1008.3
20260505120153 5 113 0.0 0.0 0.00 0.00 0.00 95 1008.2
20260505115647 5 113 0.0 0.0 0.00 0.00 0.00 95 1007.9
20260505115145 5 113 0.0 0.0 0.00 0.00 0.00 95 1008.1
20260505114642 5 113 0.0 0.0 0.00 0.00 0.00 95 1008.2
20260505114138 5 113 0.0 0.0 0.00 0.00 0.00 95 1008.2
20260505113635 5 113 0.0 0.0 0.00 0.00 0.00 95 1008.3
20260505113131 5 113 0.0 0.0 0.00 0.00 0.00 95 1008.1
20260505112628 5 113 0.0 0.0 0.00 0.00 0.00 94 1008.3
20260505112126 5 113 0.0 0.0 0.00 0.00 0.00 94 1008.1
20260505111625 5 113 0.0 0.0 0.00 0.00 0.00 94 1008.0
20260505111122 5 111 0.0 0.0 0.00 0.00 0.00 94 1008.0
20260505110618 5 111 0.0 0.0 0.00 0.00 0.00 94 1008.0
20260505110115 5 111 0.0 0.0 0.00 0.00 0.00 94 1007.9
20260505102051 6 110 0.0 0.0 0.00 0.00 0.00 92 1007.4
20260505101549 6 110 0.0 0.0 0.00 0.00 0.00 91 1007.4
20260505101045 6 108 0.0 1.6 0.00 0.00 0.00 91 1007.3
20260505100542 6 106 0.0 0.0 0.00 0.00 0.00 91 1007.5
20260505100039 6 134 0.0 0.0 0.00 0.00 0.00 91 1007.5
20260505095535 6 145 0.0 0.0 0.00 0.00 0.00 90 1007.7
20260505095031 6 156 0.0 0.0 0.00 0.00 0.00 90 1007.7
20260505094528 6 118 0.0 0.0 0.00 0.00 0.00 91 1007.4
20260505094024 6 114 0.0 0.0 0.00 0.00 0.00 91 1007.2
20260505093521 6 113 0.0 0.0 0.00 0.00 0.00 91 1007.4
20260505093018 6 138 0.0 0.0 0.00 0.00 0.00 90 1007.3
20260505092516 6 141 0.0 0.0 0.00 0.00 0.00 90 1007.4
20260505092014 7 151 0.0 0.0 0.00 0.00 0.00 89 1007.3
20260505091511 7 159 0.0 0.0 0.00 0.00 0.00 89 1007.2
20260505091009 7 154 0.0 0.0 0.00 0.00 0.00 90 1007.3
20260505090506 7 120 0.0 0.0 0.00 0.00 0.00 90 1007.4
20260505090004 7 115 0.0 0.0 0.00 0.00 0.00 90 1007.3
20260505085502 7 115 0.0 0.0 0.00 0.00 0.00 90 1007.3
20260505085000 7 113 0.0 0.0 0.00 0.00 0.00 90 1007.2
20260505084458 7 116 0.0 0.0 0.00 0.00 0.00 90 1007.2
20260505083955 7 149 0.0 0.0 0.00 0.00 0.00 90 1007.2
20260505083452 7 151 0.0 0.0 0.00 0.00 0.00 90 1007.4
20260505082948 7 130 0.0 0.0 0.00 0.00 0.00 90 1007.4
20260505082444 7 130 0.0 0.0 0.00 0.00 0.00 90 1007.4
20260505081942 7 130 0.0 0.0 0.00 0.00 0.00 90 1007.3
20260505081438 7 130 0.0 0.0 0.00 0.00 0.00 90 1007.3
20260505080934 7 130 0.0 0.0 0.00 0.00 0.00 89 1007.3
20260505080431 7 130 0.0 0.0 0.00 0.00 0.00 89 1007.1
20260505075926 8 131 0.0 0.0 0.00 0.00 0.00 89 1007.2
20260505075423 8 131 0.0 0.0 0.00 0.00 0.00 89 1007.0
20260505074921 8 131 0.0 0.0 0.00 0.00 0.00 89 1007.2
20260505074418 8 130 0.0 0.0 0.00 0.00 0.00 89 1007.1
20260505073915 8 131 0.0 0.0 0.00 0.00 0.00 89 1007.3
20260505073413 8 131 0.0 0.0 0.00 0.00 0.00 88 1007.2
20260505072910 8 131 0.0 0.0 0.00 0.00 0.00 88 1007.2
20260505072406 8 131 0.0 0.0 0.00 0.00 0.00 87 1007.0
20260505071902 8 130 0.0 0.0 0.00 0.00 0.00 86 1007.1
20260505071358 8 130 0.0 0.0 0.00 0.00 0.00 85 1006.9
20260505070857 8 129 0.0 0.0 0.00 0.00 0.00 84 1007.0
20260505070353 9 120 0.0 0.0 0.00 0.00 0.00 84 1007.1
20260505065848 9 108 0.0 0.0 0.00 0.00 0.00 83 1006.9
20260505065345 9 114 0.0 0.0 0.00 0.00 0.00 83 1007.0
20260505064842 9 118 0.0 0.0 0.00 0.00 0.00 83 1006.9
20260505064339 10 147 0.0 0.0 0.00 0.00 0.00 82 1006.8
20260505063837 10 133 0.0 0.0 0.00 0.00 0.00 82 1006.7
20260505063333 10 118 0.0 0.0 0.00 0.00 0.00 81 1006.6
20260505062830 10 111 0.0 0.0 0.00 0.00 0.00 80 1006.7
20260505062327 10 93 0.0 0.0 0.00 0.00 0.00 79 1006.8
20260505061824 11 132 0.0 0.0 0.00 0.00 0.00 78 1006.6
20260505061322 11 150 0.0 1.6 0.00 0.00 0.00 78 1006.8
20260505060819 10 170 1.6 1.6 0.00 0.00 0.00 78 1006.8
20260505060316 11 143 1.6 1.6 0.00 0.00 0.00 78 1006.6
20260505055812 11 112 3.2 4.8 0.00 0.00 0.00 77 1006.5
20260505055308 11 157 0.0 1.6 0.00 0.00 0.00 75 1006.4
20260505054806 11 160 0.0 0.0 0.00 0.00 0.00 74 1006.6
20260505054303 11 166 1.6 1.6 0.00 0.00 0.00 73 1006.6
20260505053801 11 157 0.0 0.0 0.00 0.00 0.00 74 1006.8
20260505053258 11 155 0.0 0.0 0.00 0.00 0.00 75 1006.7
20260505052754 11 156 0.0 0.0 0.00 0.00 0.00 74 1006.6
20260505052252 12 161 0.0 0.0 0.00 0.00 0.00 74 1006.5
20260505051748 12 115 0.0 0.0 0.00 0.00 0.00 73 1006.5
20260505051246 12 114 0.0 0.0 0.00 0.00 0.00 72 1006.5
20260505050744 12 113 0.0 0.0 0.00 0.00 0.00 72 1006.5
20260505050242 12 121 0.0 0.0 0.00 0.00 0.00 71 1006.6
20260505041706 15 98 1.6 1.6 0.00 0.00 0.00 60 1006.1
20260505041204 15 59 0.0 0.0 0.00 0.00 0.00 61 1006.2
20260505040701 15 115 0.0 0.0 0.00 0.00 0.00 58 1006.4
20260505040158 16 136 0.0 0.0 0.00 0.00 0.00 56 1006.2
20260505035654 16 203 1.6 1.6 0.00 0.00 0.00 55 1006.2